Location: Mason
(37.5237°N, 89.2543°W)
Time: 08:15:59
(UTC+00:00)

Cosmos 1844 - Pass Details

Date: 24 January 2021
Orbit: 821 x 869 km, 70.9° (Epoch: 08 March)

Event Time Altitude Azimuth Distance (km) Brightness Sun altitude
Rises 23:34:58 0° 199° (SSW) 3,364 7.5 -4.9°
Reaches altitude 10° 23:37:22 10° 199° (SSW) 2,441 6.7 -5.4°
Maximum altitude 23:42:59 87° 112° (ESE) 851 3.8 -6.4°
Drops below altitude 10° 23:48:43 10° 23° (NNE) 2,489 5.8 -7.5°
Sets 23:51:12 0° 23° (NNE) 3,435 6.5 -8.0°
